| time (UTC) | temp F | wind direction | speed MPH | gust MPH | rain 1hr in | rain 24hr in | rain mn in | humidity % | barometer mb |
| 20260504180041 | 70 | 242 | 2.0 | 7.0 | 0.00 | 0.00 | 0.00 | 54 | 1009.9 |
| 20260504174545 | 70 | 221 | 2.0 | 8.0 | 0.00 | 0.00 | 0.00 | 56 | 1010.0 |
| 20260504173039 | 69 | 71 | 3.0 | 11.0 | 0.00 | 0.00 | 0.00 | 54 | 1010.2 |
| 20260504171541 | 68 | 240 | 3.0 | 16.0 | 0.00 | 0.00 | 0.00 | 54 | 1010.5 |
| 20260504081545 | 43 | 0 | 0.0 | 0.0 | 0.00 | 0.00 | 0.00 | 74 | 1013.3 |
| 20260504044538 | 44 | 0 | 0.0 | 0.0 | 0.00 | 0.00 | 0.00 | 67 | 1014.5 |
| 20260504043045 | 44 | 0 | 0.0 | 0.0 | 0.00 | 0.00 | 0.00 | 66 | 1014.4 |
| 20260504041544 | 44 | 0 | 0.0 | 0.0 | 0.00 | 0.00 | 0.00 | 66 | 1014.5 |
| 20260504040046 | 45 | 0 | 0.0 | 0.0 | 0.00 | 0.00 | 0.00 | 65 | 1014.5 |
| 20260504034554 | 45 | 0 | 0.0 | 0.0 | 0.00 | 0.00 | 0.00 | 64 | 1014.6 |
| 20260504033050 | 45 | 0 | 0.0 | 0.0 | 0.00 | 0.00 | 0.00 | 65 | 1014.6 |
| 20260504031549 | 45 | 0 | 0.0 | 0.0 | 0.00 | 0.00 | 0.00 | 65 | 1014.5 |
| 20260504030049 | 45 | 0 | 0.0 | 0.0 | 0.00 | 0.00 | 0.00 | 64 | 1014.6 |
| 20260504024549 | 46 | 0 | 0.0 | 0.0 | 0.00 | 0.00 | 0.00 | 62 | 1014.6 |
| 20260504023043 | 46 | 0 | 0.0 | 0.0 | 0.00 | 0.00 | 0.00 | 63 | 1014.6 |
| 20260504021543 | 46 | 0 | 0.0 | 0.0 | 0.00 | 0.00 | 0.00 | 61 | 1014.8 |
| 20260504020039 | 47 | 0 | 0.0 | 2.0 | 0.00 | 0.00 | 0.00 | 60 | 1014.6 |
| 20260504014540 | 47 | 0 | 0.0 | 2.0 | 0.00 | 0.00 | 0.00 | 59 | 1014.6 |
| 20260504013045 | 47 | 0 | 0.0 | 1.0 | 0.00 | 0.00 | 0.00 | 59 | 1014.4 |
| 20260504011545 | 48 | 0 | 0.0 | 2.0 | 0.00 | 0.00 | 0.00 | 58 | 1014.3 |
| 20260504010044 | 49 | 0 | 0.0 | 3.0 | 0.00 | 0.00 | 0.00 | 56 | 1014.3 |
| 20260504004542 | 49 | 140 | 0.0 | 4.0 | 0.00 | 0.01 | 0.00 | 55 | 1014.3 |
| 20260504003045 | 50 | 0 | 0.0 | 7.0 | 0.00 | 0.01 | 0.00 | 54 | 1014.2 |
| 20260504001539 | 51 | 259 | 0.0 | 2.0 | 0.00 | 0.01 | 0.00 | 54 | 1014.2 |
| 20260504000106 | 52 | 0 | 1.0 | 8.0 | 0.00 | 0.01 | 0.00 | 51 | 1014.2 |
| 20260503234544 | 53 | 248 | 1.0 | 6.0 | 0.00 | 0.01 | 0.00 | 50 | 1014.1 |
| 20260503233043 | 54 | 272 | 0.0 | 6.0 | 0.00 | 0.01 | 0.00 | 48 | 1014.2 |
| 20260503231542 | 55 | 273 | 3.0 | 9.0 | 0.00 | 0.01 | 0.00 | 47 | 1014.2 |
| 20260503230040 | 55 | 292 | 2.0 | 8.0 | 0.00 | 0.01 | 0.00 | 46 | 1014.2 |
| 20260503224538 | 55 | 279 | 3.0 | 14.0 | 0.00 | 0.01 | 0.00 | 47 | 1014.2 |
| 20260503223045 | 56 | 195 | 3.0 | 11.0 | 0.00 | 0.01 | 0.00 | 47 | 1014.2 |
| 20260503221541 | 55 | 0 | 2.0 | 11.0 | 0.00 | 0.01 | 0.00 | 47 | 1014.2 |
| 20260503220046 | 55 | 266 | 3.0 | 13.0 | 0.00 | 0.01 | 0.00 | 49 | 1014.1 |
| 20260503214540 | 56 | 275 | 5.0 | 13.0 | 0.00 | 0.01 | 0.00 | 49 | 1014.2 |
| 20260503213039 | 56 | 286 | 4.0 | 12.0 | 0.00 | 0.01 | 0.00 | 45 | 1014.2 |
| 20260503211544 | 55 | 265 | 2.0 | 8.0 | 0.00 | 0.01 | 0.00 | 51 | 1014.3 |
| 20260503210043 | 55 | 265 | 5.0 | 16.0 | 0.00 | 0.01 | 0.00 | 47 | 1014.3 |
| 20260503204546 | 56 | 261 | 4.0 | 11.0 | 0.00 | 0.01 | 0.00 | 48 | 1014.2 |
| 20260503203044 | 55 | 259 | 4.0 | 13.0 | 0.00 | 0.01 | 0.00 | 47 | 1014.4 |
| 20260503201544 | 56 | 306 | 6.0 | 13.0 | 0.00 | 0.01 | 0.00 | 46 | 1014.5 |
| 20260503200039 | 55 | 237 | 5.0 | 11.0 | 0.00 | 0.01 | 0.00 | 48 | 1014.7 |
| 20260503194547 | 55 | 246 | 7.0 | 15.0 | 0.00 | 0.01 | 0.00 | 48 | 1015.0 |
| 20260503193043 | 56 | 306 | 3.0 | 12.0 | 0.00 | 0.01 | 0.00 | 48 | 1015.0 |
| 20260503191544 | 56 | 288 | 4.0 | 17.0 | 0.00 | 0.01 | 0.00 | 48 | 1015.1 |
| 20260503190045 | 56 | 268 | 5.0 | 16.0 | 0.00 | 0.01 | 0.00 | 50 | 1015.3 |
| 20260503184600 | 56 | 42 | 4.0 | 12.0 | 0.00 | 0.01 | 0.00 | 52 | 1015.5 |
| 20260503183040 | 55 | 298 | 6.0 | 15.0 | 0.00 | 0.01 | 0.00 | 48 | 1015.7 |
| 20260503181551 | 55 | 275 | 3.0 | 14.0 | 0.00 | 0.01 | 0.00 | 51 | 1015.7 |